EHI
0 0 0 0 0 0 0 0 0 0 0 0 1 3 9 16 22 27 27 24 20 14 7 6 10 13 14 11 7 6 6 7 6 5 4 3 3 3 1 0 0 0 0 0
0 0 0 0 0 0 0 0 0 0 0 0 0 2 5 10 15 20 21 20 17 12 6 4 8 11 11 10 7 6 6 5 5 5 4 3 2 2 1 0 0 0 0 0
0 0 0 0 0 0 0 0 0 0 0 0 0 0 1 3 6 10 13 14 13 10 6 4 6 9 10 9 8 7 5 4 3 3 2 1 1 1 1 0 0 0 0 0
0 0 0 0 0 0 0 0 0 0 0 0 0 0 0 1 1 3 6 8 8 7 6 5 6 8 9 8 7 6 4 2 2 2 1 0 0 0 0 0 0 0 0 0
0 0 0 0 0 0 0 0 0 0 0 0 0 0 0 0 0 1 2 3 3 4 4 5 5 6 6 6 5 4 3 1 1 1 1 0 0 0 0 0 0 0 0 0
0 0 0 0 0 0 0 0 0 0 0 0 0 0 0 0 0 0 1 1 1 1 2 2 3 4 4 3 3 2 1 1 0 0 0 0 0 0 0 0 0 0 0 0
0 0 0 0 0 0 0 0 0 0 0 0 0 0 0 0 0 0 1 2 1 0 0 1 2 4 5 4 3 3 2 1 0 0 0 0 0 0 0 0 0 0 0 0
0 0 0 0 0 0 0 0 0 0 0 0 0 0 0 0 0 0 1 2 2 1 0 0 2 5 6 6 5 4 3 1 0 0 0 0 0 0 0 0 0 0 0 0
0 0 0 0 0 0 0 0 0 0 0 0 0 0 0 0 0 0 1 2 2 1 0 0 1 3 6 7 6 6 5 2 0 0 0 0 0 0 0 0 0 0 0 0
0 0 0 0 0 0 0 0 0 0 0 0 0 0 0 0 0 0 1 1 1 0 0 0 0 1 4 6 6 6 6 3 1 0 0 1 0 0 0 0 0 0 0 0
0 0 0 0 0 0 0 0 0 0 0 0 0 0 0 0 0 0 0 0 0 0 0 0 0 1 3 4 5 6 5 3 1 0 0 0 0 0 0 0 0 0 0 0
0 0 0 0 0 0 0 0 0 0 0 0 0 0 0 0 0 0 0 0 0 0 0 0 0 1 3 3 4 5 4 2 0 0 0 0 0 0 0 0 0 0 0 0
0 0 0 0 0 0 0 0 0 0 0 0 0 0 0 0 0 0 0 0 0 0 0 0 0 2 3 3 3 3 2 1 1 1 1 1 1 1 0 0 0 0 0 0
0 0 0 0 0 0 0 0 0 0 0 0 0 0 0 0 0 0 0 0 0 0 0 0 0 1 2 2 2 2 1 1 2 2 2 2 2 2 1 0 0 0 0 0
0 0 0 0 0 0 0 0 0 0 0 0 0 0 0 0 1 1 0 0 0 0 0 0 0 1 1 1 0 1 1 1 2 2 2 2 3 2 1 0 0 0 0 0
0 0 0 0 0 0 0 0 0 0 0 0 0 0 1 1 1 1 1 1 0 0 0 0 0 1 2 1 0 0 0 1 1 1 1 1 1 1 1 0 0 0 0 0
0 0 0 0 0 0 0 0 0 0 0 0 1 1 2 3 4 4 2 1 0 1 0 0 0 1 1 1 0 0 0 0 0 0 0 0 0 0 0 0 0 0 0 0
0 0 0 0 0 0 0 0 0 0 0 1 2 3 4 6 7 6 3 1 0 0 0 0 0 0 0 0 0 0 0 0 0 0 0 0 0 0 0 0 0 0 0 1
0 0 0 0 0 0 0 0 0 0 0 1 2 3 4 6 7 6 3 1 0 0 0 0 0 0 0 0 0 0 0 0 0 0 0 0 0 0 0 0 0 0 0 1
0 0 0 0 0 0 0 0 0 0 0 0 1 2 3 4 5 4 2 0 0 0 0 0 0 0 0 0 0 0 0 0 0 0 0 0 0 0 0 0 0 0 0 1
0 0 0 0 0 0 0 0 0 0 0 0 0 0 1 2 3 1 0 0 0 0 0 0 0 0 0 0 0 0 0 0 0 0 0 0 0 0 0 0 0 0 0 0
0 0 0 0 0 0 0 0 0 0 0 0 0 0 1 2 2 1 0 0 0 0 0 0 0 0 0 0 0 0 0 0 0 0 0 0 0 0 0 0 0 0 0 0
0 0 0 0 0 0 0 0 0 0 0 0 0 0 1 2 1 0 0 0 0 0 0 0 0 0 0 0 0 0 0 0 0 0 0 0 0 0 0 0 0 0 0 0
0 0 0 0 0 0 0 0 0 0 0 0 0 0 1 1 0 0 0 0 0 0 0 0 0 0 0 0 0 0 0 0 0 0 0 0 0 0 0 0 0 0 0 0
0 0 0 0 0 0 0 0 0 0 0 0 0 0 0 0 0 0 0 0 0 0 0 0 0 0 0 0 0 0 0 0 0 0 0 0 0 0 0 0 0 0 0 0
0 0 0 0 0 0 0 0 0 0 0 0 0 0 0 0 0 0 0 0 0 0 0 0 0 0 0 0 0 0 0 0 0 0 0 0 0 0 0 0 0 0 0 0
Wind_Speed
2 3 4 6 6 5 4 4 9 11 6 2 3 3 1 3 5 6 6 6 7 7 4 5 6 6 6 7 7 7 7 7 7 5 5 4 3 2 2 2 3 4 4 4
2 5 9 6 5 4 4 5 7 8 3 1 2 3 1 2 4 6 6 7 7 6 5 5 5 6 7 8 8 8 8 8 7 5 4 3 4 3 2 2 2 3 4 4
9 8 4 4 3 3 4 5 6 6 3 4 2 4 2 0 0 2 4 5 6 8 8 8 7 6 7 8 9 9 8 8 7 6 5 5 4 3 2 2 2 2 3 4
7 7 4 5 5 4 6 5 4 2 1 3 2 4 5 2 2 3 5 5 6 6 6 7 7 7 8 8 7 7 8 7 7 8 8 8 5 4 4 3 2 2 3 4
8 5 6 6 7 6 6 1 2 2 2 1 2 1 7 1 3 6 6 7 7 7 8 8 7 7 7 7 7 7 8 7 7 8 9 8 5 4 3 3 4 3 2 2
7 4 5 7 5 4 3 4 5 5 5 2 2 1 7 4 5 5 6 7 7 8 7 6 5 5 5 5 6 7 8 8 8 8 8 8 8 7 6 5 5 3 2 1
6 6 5 4 2 1 4 5 4 5 5 5 2 2 10 6 5 6 7 8 8 8 8 7 7 7 6 6 7 7 9 8 8 9 8 8 8 8 8 7 6 5 3 3
4 8 5 5 9 7 5 8 7 4 5 5 2 5 9 4 3 3 4 6 8 8 8 8 8 8 7 7 7 8 9 8 9 9 8 7 8 6 5 6 6 6 4 4
7 7 4 3 4 9 6 4 6 7 2 2 5 7 9 2 1 2 3 5 8 9 9 8 8 7 7 8 8 8 8 8 8 8 8 7 7 6 6 6 5 4 4 4
9 5 5 2 3 1 5 8 6 6 5 3 5 5 6 5 4 4 4 5 6 7 7 8 7 7 7 7 6 7 7 7 7 8 8 7 7 7 6 6 6 5 5 4
5 6 5 1 4 6 4 4 5 5 5 6 4 9 8 8 6 7 7 6 6 7 8 8 7 7 7 6 7 7 7 7 7 8 7 7 6 6 6 6 6 6 5 5
3 5 3 5 4 2 5 8 8 6 5 5 4 10 5 5 4 5 5 6 6 6 6 6 7 7 7 7 7 8 7 7 7 7 7 6 6 6 6 6 5 5 5 6
3 5 2 6 5 2 1 3 4 5 5 5 5 9 3 1 3 3 4 5 5 5 5 5 5 6 7 7 7 8 8 8 7 7 7 6 6 6 6 5 4 4 5 4
5 4 6 7 6 3 3 3 4 6 5 6 8 8 5 3 4 4 5 5 5 5 6 5 5 5 5 5 6 7 6 7 7 7 7 7 6 6 5 4 4 4 4 4
4 2 4 5 6 4 5 6 6 7 8 9 9 8 10 7 7 6 6 6 6 6 6 6 6 5 4 5 5 5 6 6 7 7 7 6 5 4 4 4 3 3 3 4
2 2 2 4 5 5 6 7 8 8 6 6 4 8 6 3 5 6 7 8 7 6 6 6 6 6 6 5 5 5 5 5 6 6 5 4 5 4 3 3 3 3 2 2
1 3 2 4 4 2 7 8 9 6 6 8 9 9 4 4 6 6 7 7 8 7 6 6 6 5 5 5 6 6 5 6 6 6 5 5 5 5 4 3 3 3 3 3
5 4 3 3 1 8 9 3 5 6 6 6 5 3 5 6 6 5 4 7 7 7 7 6 5 5 4 5 5 6 7 7 7 7 6 5 6 5 5 4 4 3 3 3
6 7 4 3 5 7 6 3 3 5 5 5 6 6 7 10 8 5 5 6 7 7 7 6 6 6 6 7 8 10 9 9 9 8 7 6 6 6 6 5 5 4 5 5
3 3 4 3 4 7 8 3 1 3 4 4 6 9 10 9 6 4 6 9 9 9 9 9 8 9 9 8 9 12 11 10 9 8 7 7 7 7 7 6 5 5 6 6
1 1 4 5 6 8 5 2 1 5 7 3 6 7 8 4 4 10 11 11 10 10 10 10 10 9 8 8 10 12 11 9 7 8 9 9 8 7 7 6 6 6 7 7
3 3 4 4 5 8 3 1 4 5 2 3 5 5 7 10 14 14 13 13 12 11 11 11 11 10 8 8 11 13 10 7 7 9 9 8 7 7 7 7 7 6 7 7
5 6 4 6 7 5 3 4 4 3 2 1 4 8 13 14 14 14 13 13 12 11 11 10 11 12 9 8 9 12 7 7 9 10 9 8 8 7 7 7 6 6 5 5
4 3 3 5 6 5 4 4 3 1 2 3 8 11 14 15 15 14 13 12 12 11 11 10 11 12 10 8 9 8 7 8 10 10 8 6 7 7 7 5 5 5 4 4
4 2 3 5 5 5 4 2 1 3 6 8 10 11 14 17 16 14 13 12 11 11 10 10 10 11 10 8 8 7 7 8 9 8 7 6 6 6 6 6 5 5 3 2
3 4 4 4 3 2 2 2 3 7 8 10 13 13 13 15 16 15 12 11 11 10 10 10 10 10 9 9 8 6 5 7 8 7 6 4 4 4 5 5 6 10 7 8
Wind_Direction
124 101 221 221 202 219 252 268 281 281 292 300 278 278 257 172 174 177 178 179 188 196 180 165 168 167 162 162 160 159 155 157 150 143 143 141 145 137 126 132 138 137 135 136
51 250 233 213 216 225 245 278 283 295 344 25 324 306 254 188 201 193 189 190 191 181 173 177 177 170 173 173 168 160 162 161 164 159 149 140 129 126 121 119 121 135 137 142
197 233 205 201 252 285 283 243 259 275 326 22 5 323 292 285 183 187 190 193 195 188 184 183 184 187 180 179 176 170 166 164 161 146 126 112 92 84 97 117 126 141 146 142
229 247 231 245 255 222 273 255 240 265 356 313 9 296 289 248 249 215 206 199 202 196 184 182 183 183 185 181 170 167 164 160 158 151 152 154 155 158 172 159 149 141 140 140
228 213 196 219 230 195 227 338 68 66 118 351 1 245 289 296 244 231 218 207 202 195 187 185 184 184 183 173 167 168 165 163 164 162 163 162 155 150 137 135 140 139 126 137
243 228 204 214 221 188 167 68 52 51 64 334 293 204 280 241 228 228 212 203 197 193 188 182 173 166 171 167 167 165 164 167 168 166 167 166 159 151 146 152 154 150 140 145
281 269 234 201 250 319 121 92 22 353 2 265 271 239 253 246 223 212 208 203 195 190 182 174 169 170 173 172 176 174 171 171 171 170 173 170 165 163 165 167 168 163 167 185
224 281 250 198 191 192 176 146 161 205 233 278 301 247 256 251 240 223 204 188 181 185 183 180 179 177 177 176 176 171 174 176 174 175 175 167 166 167 171 173 170 177 185 191
190 251 286 235 185 151 145 172 162 136 160 278 281 283 299 245 202 179 176 172 175 179 182 182 179 177 175 176 179 175 172 173 175 175 168 168 170 172 175 175 175 180 185 184
170 238 278 281 100 65 148 145 111 124 153 247 286 276 256 255 223 192 185 186 180 173 178 181 181 180 179 176 171 166 168 172 170 172 174 177 176 178 175 169 179 187 191 186
156 194 282 4 192 190 125 123 119 124 155 166 241 267 230 223 206 190 192 188 177 175 180 183 182 179 171 162 163 168 170 166 167 173 174 173 173 175 172 181 192 193 194 192
140 138 248 258 253 199 175 174 152 160 210 183 188 263 265 216 198 179 180 177 172 173 176 174 173 167 166 169 171 174 175 175 175 171 169 173 169 171 178 191 196 193 199 201
123 111 41 342 341 357 164 171 163 134 127 159 178 261 293 141 152 163 157 155 157 159 161 159 157 165 173 175 175 176 177 179 169 162 167 172 174 178 184 192 192 189 197 201
112 123 165 201 226 237 253 212 161 138 158 194 215 243 275 228 188 177 161 153 152 154 154 155 159 162 167 167 168 170 172 169 164 163 169 179 185 184 185 186 183 189 193 195
92 161 219 237 247 233 233 239 201 197 194 191 223 223 244 222 193 181 162 150 146 149 153 159 159 154 149 150 156 162 165 165 166 166 172 179 173 169 170 174 180 184 189 201
76 176 217 269 249 237 246 243 223 223 213 216 227 247 245 183 146 156 160 155 155 154 155 154 149 147 153 156 157 152 152 154 152 156 163 154 147 146 149 150 151 148 146 145
190 167 175 257 272 277 247 222 203 206 203 184 206 229 164 158 165 164 159 155 152 148 141 141 142 144 147 148 148 147 138 125 129 132 130 134 134 129 131 132 124 120 113 104
172 163 176 227 253 233 239 225 196 201 222 202 209 201 169 152 119 93 112 138 136 132 127 124 119 114 110 109 115 114 112 114 113 107 105 111 118 118 116 112 106 97 98 97
178 162 168 177 220 265 282 243 181 181 243 209 185 161 135 124 98 70 70 104 116 117 113 107 104 102 99 104 111 107 101 100 100 100 99 99 104 103 97 94 92 90 90 83
113 138 157 176 203 233 243 241 220 122 261 214 165 160 155 145 144 161 120 108 104 103 101 101 97 93 92 96 105 102 99 96 95 97 94 90 92 96 94 91 85 81 86 83
49 139 194 206 227 257 261 294 110 174 234 190 167 161 158 161 140 127 119 106 102 99 98 97 93 88 86 93 98 95 91 87 89 90 87 82 82 87 89 85 80 83 83 79
205 207 213 191 210 249 295 329 203 231 284 152 147 138 124 116 116 121 119 114 108 103 98 96 94 84 72 81 95 92 85 83 84 84 80 77 76 82 85 86 80 80 85 82
212 204 205 205 224 252 270 250 270 263 242 172 138 129 130 127 127 125 120 114 109 106 100 97 99 90 75 69 89 96 91 91 88 82 76 74 73 70 74 82 85 80 78 83
261 200 219 262 265 276 287 284 285 251 201 140 131 134 133 130 130 125 120 114 111 108 105 104 102 97 87 78 80 89 93 90 88 85 78 74 76 72 66 65 71 81 82 87
253 223 227 254 280 313 316 321 41 97 110 114 116 124 128 127 125 123 118 116 113 108 104 102 101 99 95 90 84 83 89 94 92 89 87 82 81 84 77 68 58 68 65 95
239 211 211 237 244 232 294 6 97 110 115 117 117 114 115 121 122 118 115 115 113 109 105 103 100 98 96 92 85 77 81 95 99 92 84 82 83 82 86 87 70 50 60 64